Location: Clatteringshaws Loch
(55.0508°N, 4.2860°W)
Time: 03:55:58
(UTC+00:00)

SR - Visible Passes

Search period start: 23 November 2017 00:00
Search period end: 03 December 2017 00:00
Orbit: 584 x 873 km, 66.7° (Epoch: 22 November)

Date Brightness Start Highest point End Pass type
(mag) Time Alt. Az. Time Alt. Az. Time Alt. Az.
23 Nov ? 05:05:03 19° N 05:05:03 19° N 05:07:20 10° NE visible
23 Nov ? 06:44:28 10° NW 06:47:33 19° N 06:50:40 10° ENE visible
24 Nov ? 04:16:54 14° NNE 04:16:54 14° NNE 04:17:47 10° NNE visible
24 Nov ? 05:56:19 16° NNW 05:57:33 18° N 06:00:31 10° NE visible
25 Nov ? 05:08:10 18° N 05:08:10 18° N 05:10:34 10° NE visible
25 Nov ? 06:47:35 10° NNW 06:51:01 22° NNE 06:54:23 10° ENE visible
26 Nov ? 04:20:00 14° NNE 04:20:00 14° NNE 04:20:51 10° NE visible
26 Nov ? 05:59:25 16° NNW 06:01:03 19° N 06:04:08 10° ENE visible
27 Nov ? 05:11:15 18° N 05:11:15 18° N 05:14:00 10° NE visible
27 Nov ? 06:50:41 10° NNW 06:54:24 28° NNE 06:58:06 10° E visible
28 Nov ? 04:23:06 14° NNE 04:23:06 14° NNE 04:24:04 10° NE visible
28 Nov ? 06:02:31 16° NNW 06:04:30 22° NNE 06:07:52 10° ENE visible
29 Nov ? 05:14:21 19° N 05:14:33 19° N 05:17:36 10° NE visible
29 Nov ? 06:53:47 11° NW 06:57:40 38° NE 07:01:43 10° ESE visible
30 Nov ? 04:26:12 15° NNE 04:26:12 15° NNE 04:27:28 10° NE visible
30 Nov ? 06:05:38 18° NNW 06:07:54 27° NNE 06:11:35 10° E visible
01 Dec ? 05:17:29 21° N 05:18:00 21° NNE 05:21:20 10° ENE visible
01 Dec ? 06:56:54 12° NW 07:00:51 58° NE 07:05:07 10° ESE visible
02 Dec ? 04:29:22 16° NNE 04:29:22 16° NNE 04:31:05 10° NE visible
02 Dec ? 06:08:47 20° NNW 06:11:11 37° NE 06:15:12 10° ESE visible
